Stations météo

réclame
Mon MeteoGroup
Boulogne, France (7002): Température de l'air & dewpoint: 12.01.2020 02:00:00 - 18.01.2020 02:00:00 (CET)Boulogne, France (7002): Vitesse du vent & gusts: 12.01.2020 02:00:00 - 18.01.2020 02:00:00 (CET)Boulogne, France (7002): Direction du vent: 12.01.2020 02:00:00 - 18.01.2020 02:00:00 (CET)Boulogne, France (7002): reduced air pressure: 12.01.2020 02:00:00 - 18.01.2020 02:00:00 (CET)Boulogne, France (7002): visibility: 12.01.2020 02:00:00 - 18.01.2020 02:00:00 (CET)Boulogne, France (7002): Quantités de précipitations: 12.01.2020 02:00:00 - 18.01.2020 02:00:00 (CET)
Date & Time tt [°C] td [°C] ff [km/h] ff [knt] fx [km/h] fx [knt] dd ppp [hPa] vv [km] rr [mm]
18.01.2020 02:00:00 5,1 2,6 16 8 49 27 SW 1021,7 - 0,4
18.01.2020 01:00:00 6,4 2,7 29 15 48 26 SW 1020,8 9 0,0
18.01.2020 00:00:00 6,5 3,8 35 19 58 31 SW 1020,4 - 0,8
17.01.2020 23:00:00 5,4 2,9 41 22 70 38 WSW 1019,9 - 2,0
17.01.2020 22:00:00 7,6 4,0 23 13 60 33 WSW 1019,7 - 0,0
17.01.2020 21:00:00 7,5 3,0 23 12 44 24 W 1019,6 - 0,0
17.01.2020 20:00:00 7,4 2,9 29 16 48 26 W 1019,3 - 0,0
17.01.2020 19:00:00 7,2 2,5 33 18 63 34 W 1018,7 - 0,0
17.01.2020 18:00:00 7,9 4,1 37 20 61 33 W 1017,8 - 0,0
17.01.2020 17:00:00 8,1 3,5 41 22 68 37 W 1016,7 - 0,0
17.01.2020 16:00:00 8,4 3,8 37 20 75 40 WSW 1015,8 10 0,0
17.01.2020 15:00:00 8,2 3,8 40 21 81 44 WSW 1014,8 - 0,0
17.01.2020 14:00:00 8,4 4,6 46 25 81 44 W 1014,0 - 0,0
17.01.2020 13:00:00 9,6 6,7 49 26 72 39 SW 1013,1 10 0,0
17.01.2020 12:00:00 9,5 6,9 39 21 63 34 SW 1013,0 - 0,0
17.01.2020 11:00:00 9,5 7,6 31 17 59 32 SW 1012,9 - 0,0
17.01.2020 10:00:00 9,5 7,8 30 16 61 33 SSW 1012,3 10 0,0
17.01.2020 09:00:00 9,6 8,4 29 16 51 28 SSW 1011,9 - 0,2
17.01.2020 08:00:00 9,3 8,5 21 11 41 22 SSW 1011,6 - 0,0
17.01.2020 07:00:00 8,9 8,0 16 9 48 26 S 1011,4 10 0,4
17.01.2020 06:00:00 9,1 8,6 25 14 50 27 S 1011,5 - 1,8
17.01.2020 05:00:00 9,0 8,4 23 13 47 25 S 1012,0 - 1,4
17.01.2020 04:00:00 9,4 8,5 26 14 57 31 S 1012,1 5 1,2
17.01.2020 03:00:00 10,1 8,0 31 17 54 29 S 1012,2 - 0,6
17.01.2020 02:00:00 11,8 6,5 28 15 53 28 S 1012,2 - 0,0
17.01.2020 01:00:00 11,7 6,4 24 13 50 27 S 1012,8 15 0,0
17.01.2020 00:00:00 11,8 6,3 26 14 49 26 S 1013,3 - 0,0
16.01.2020 23:00:00 11,5 6,0 25 13 45 25 S 1013,3 - 0,0
16.01.2020 22:00:00 10,8 6,0 28 15 55 30 SSE 1013,8 15 0,0
16.01.2020 21:00:00 11,0 6,1 31 17 54 29 SSE 1013,8 - 0,0
16.01.2020 20:00:00 11,2 6,3 31 17 59 32 SSE 1014,6 - 0,0
16.01.2020 19:00:00 11,2 6,7 32 18 58 32 SSE 1014,3 10 0,0
16.01.2020 18:00:00 11,3 6,8 32 17 56 30 SSE 1014,5 - 0,0
16.01.2020 17:00:00 11,1 7,0 30 16 58 32 SSE 1014,7 - 0,0
16.01.2020 16:00:00 11,6 7,1 34 18 60 33 SSE 1015,3 9 0,0
16.01.2020 15:00:00 11,7 6,8 35 19 61 33 S 1015,9 - 0,0
16.01.2020 14:00:00 10,1 6,2 36 19 60 32 SSE 1017,2 - 0,0
16.01.2020 13:00:00 9,7 6,8 33 18 58 31 SSE 1018,5 13 0,0
16.01.2020 12:00:00 8,7 6,1 32 17 58 31 SSE 1019,7 - 0,0
16.01.2020 11:00:00 7,8 5,4 31 17 57 31 SSE 1020,3 - 0,0
16.01.2020 10:00:00 6,5 4,8 28 15 44 24 SSE 1020,9 20 0,0
16.01.2020 09:00:00 5,5 4,3 21 12 41 22 SE 1021,4 - 0,2
16.01.2020 08:00:00 5,5 4,3 21 11 36 19 SSE 1021,9 - 0,0
16.01.2020 07:00:00 5,4 4,0 17 9 34 19 SE 1022,5 - 0,0
16.01.2020 06:00:00 5,4 3,6 18 10 32 17 SE 1022,6 - 0,0
16.01.2020 05:00:00 6,1 4,1 19 11 35 19 SSE 1022,8 - 0,0
16.01.2020 04:00:00 6,7 4,9 19 10 32 18 S 1022,4 - 0,0
16.01.2020 03:00:00 7,1 5,6 20 11 35 19 S 1022,5 - 0,0
16.01.2020 02:00:00 7,2 6,0 19 10 34 18 S 1022,1 - 0,0
16.01.2020 01:00:00 7,9 6,5 19 10 39 21 S 1021,9 11 0,0
16.01.2020 00:00:00 8,4 7,2 19 11 44 24 SSW 1021,4 - 0,0
15.01.2020 23:00:00 8,6 7,5 28 15 48 26 SW 1020,7 - 0,0
15.01.2020 22:00:00 8,7 7,8 21 12 41 22 SW 1020,1 7 0,0
15.01.2020 21:00:00 8,6 7,5 22 12 43 23 SW 1019,1 - 0,0
15.01.2020 20:00:00 8,6 7,1 27 15 42 23 SW 1018,0 - 0,0
15.01.2020 19:00:00 8,5 7,0 22 12 40 22 SW 1017,0 - 0,0
15.01.2020 18:00:00 8,2 6,2 23 12 38 20 SW 1015,6 - 0,0
15.01.2020 17:00:00 8,3 6,1 24 13 43 23 SW 1014,2 - 0,0
15.01.2020 16:00:00 8,0 5,6 24 13 32 17 SW 1012,8 - 0,0
15.01.2020 15:00:00 7,1 5,9 14 8 29 15 WSW 1011,1 - 0,2
15.01.2020 14:00:00 7,0 6,3 14 8 30 16 WNW 1010,1 - 0,8
15.01.2020 13:00:00 7,6 6,8 14 8 70 38 WNW 1009,0 - 1,4
15.01.2020 12:00:00 9,8 7,2 33 18 81 44 SSW 1006,9 - 0,6
15.01.2020 11:00:00 10,0 6,7 45 24 93 50 S 1005,2 - 0,4
15.01.2020 10:00:00 11,0 5,7 46 25 88 47 S 1004,3 - 0,0
15.01.2020 09:00:00 11,2 5,1 42 23 85 46 S 1004,0 - 0,0
15.01.2020 08:00:00 11,5 5,1 45 24 81 44 S 1004,1 - 0,0
15.01.2020 07:00:00 11,6 5,7 45 24 82 44 S 1003,7 - 0,0
15.01.2020 06:00:00 11,5 5,6 48 26 95 52 S 1003,5 - 0,0
15.01.2020 05:00:00 11,5 6,0 43 23 89 48 S 1003,6 - 0,0
15.01.2020 04:00:00 11,6 6,5 43 23 98 53 S 1003,8 - 0,0
15.01.2020 03:00:00 11,7 6,6 45 24 89 48 S 1003,5 - 0,0
15.01.2020 02:00:00 11,8 6,9 48 26 88 48 S 1003,7 - 0,0
15.01.2020 01:00:00 11,5 7,8 48 26 87 47 S 1003,8 - 0,0
15.01.2020 00:00:00 11,3 8,5 45 24 87 47 S 1003,7 - 0,0
14.01.2020 23:00:00 10,8 9,4 42 23 90 48 S 1003,4 - 1,0
14.01.2020 22:00:00 10,6 9,7 43 23 83 45 S 1003,3 3,0 1,0
14.01.2020 21:00:00 11,1 9,4 44 24 85 46 S 1002,6 - 0,4
14.01.2020 20:00:00 11,1 9,7 42 23 89 48 S 1002,1 - 0,0
14.01.2020 19:00:00 11,5 9,6 43 23 85 46 S 1001,6 6 0,0
14.01.2020 18:00:00 11,1 9,5 45 25 91 49 S 1001,2 - 0,6
14.01.2020 17:00:00 11,7 9,3 44 24 89 48 S 1000,8 - 0,0
14.01.2020 16:00:00 11,7 9,4 48 26 92 50 S 1000,2 6 0,0
14.01.2020 15:00:00 11,0 9,6 45 25 86 46 S 1000,0 - 0,0
14.01.2020 14:00:00 10,6 9,8 46 25 84 45 S 1000,2 - 0,2
14.01.2020 13:00:00 10,5 10,2 34 18 64 34 S 1001,0 - 0,6
14.01.2020 12:00:00 10,2 9,7 35 19 64 35 S 1002,1 - 0,0
14.01.2020 11:00:00 9,8 9,3 33 18 60 33 S 1002,7 - 0,0
14.01.2020 10:00:00 8,7 8,2 30 16 55 30 S 1002,6 - 0,0
14.01.2020 09:00:00 8,1 7,7 27 14 54 29 S 1002,7 - 0,0
14.01.2020 08:00:00 8,0 7,7 26 14 51 28 S 1002,7 - 0,4
14.01.2020 07:00:00 8,0 7,6 23 13 49 26 S 1002,3 6 0,6
14.01.2020 06:00:00 8,1 7,5 23 12 45 24 SSW 1001,5 - 1,4
14.01.2020 05:00:00 8,2 7,9 32 17 55 30 SW 1001,3 - 1,6
14.01.2020 04:00:00 8,7 8,1 30 16 86 47 SW 1001,0 - 2,7
14.01.2020 03:00:00 9,7 8,3 39 21 91 49 S 999,9 - 0,6
14.01.2020 02:00:00 9,9 8,5 42 23 80 43 S 1000,0 - 0,6
14.01.2020 01:00:00 10,1 8,2 42 23 86 46 S 1000,7 - 0,2
14.01.2020 00:00:00 10,1 8,2 44 24 80 43 S 1001,3 - 0,2
13.01.2020 23:00:00 9,9 8,0 42 23 89 48 S 1001,7 - 0,0
13.01.2020 22:00:00 10,5 7,7 47 25 94 51 S 1002,3 7 0,0
13.01.2020 21:00:00 10,5 7,6 44 24 90 49 S 1002,9 - 0,0
13.01.2020 20:00:00 10,2 7,8 44 24 81 44 S 1004,0 - 0,2
13.01.2020 19:00:00 9,4 8,3 38 20 68 37 S 1005,1 8 0,6
13.01.2020 18:00:00 9,4 8,0 37 20 70 38 S 1005,9 - 0,0
13.01.2020 17:00:00 9,1 7,7 31 17 62 34 S 1006,6 - 0,0
13.01.2020 16:00:00 8,9 7,3 32 17 58 31 S 1008,5 9 0,0
13.01.2020 15:00:00 8,1 7,5 28 15 53 29 S 1010,3 - 0,0
13.01.2020 14:00:00 8,0 6,8 29 15 52 28 S 1011,6 - 0,2
13.01.2020 13:00:00 7,7 5,8 25 13 48 26 S 1013,1 - 0,0
13.01.2020 12:00:00 7,0 5,3 23 12 50 27 S 1014,8 - 0,0
13.01.2020 11:00:00 6,4 5,7 22 12 40 22 S 1016,1 - 0,0
13.01.2020 10:00:00 5,8 5,2 24 13 38 20 S 1017,5 7 0,0
13.01.2020 09:00:00 5,3 4,6 17 9 36 19 SSE 1017,6 - 0,0
13.01.2020 08:00:00 5,5 4,6 23 12 38 21 S 1017,9 - 0,0
13.01.2020 07:00:00 6,3 5,3 22 12 38 21 S 1018,3 - 0,0
13.01.2020 06:00:00 7,1 6,2 16 9 37 20 S 1019,0 - 0,0
13.01.2020 05:00:00 7,8 6,9 22 12 42 23 SSW 1019,8 - 0,0
13.01.2020 04:00:00 7,6 6,5 18 10 38 20 S 1020,5 8 2,5
13.01.2020 03:00:00 7,5 5,3 19 10 63 34 SW 1021,3 - 0,2
13.01.2020 02:00:00 8,4 7,3 20 11 53 29 SW 1021,6 - 3,0
13.01.2020 01:00:00 8,6 6,9 21 12 34 18 SW 1022,3 10 0,0
13.01.2020 00:00:00 8,7 6,0 20 11 31 17 WSW 1022,4 - 0,0
12.01.2020 23:00:00 8,8 6,6 18 10 35 19 W 1022,6 - 0,0
12.01.2020 22:00:00 9,0 6,4 25 14 44 24 WSW 1022,6 14 0,0
12.01.2020 21:00:00 8,9 6,5 22 12 42 23 WSW 1022,5 - 0,0
12.01.2020 20:00:00 9,1 6,5 26 14 48 26 W 1022,6 - 0,0
12.01.2020 19:00:00 9,1 6,9 26 14 46 25 W 1022,3 - 0,0
12.01.2020 18:00:00 9,2 7,3 26 14 47 26 WSW 1022,0 - 0,0
12.01.2020 17:00:00 9,5 7,3 30 16 58 31 WSW 1021,6 - 0,0
12.01.2020 16:00:00 10,0 7,4 36 19 65 35 WSW 1020,9 7 0,0
12.01.2020 15:00:00 10,0 7,6 41 22 71 38 WSW 1020,3 - 0,2
12.01.2020 14:00:00 10,4 8,8 44 24 68 37 WSW 1020,1 - 0,0
12.01.2020 13:00:00 10,4 9,0 47 25 69 37 WSW 1020,1 7 0,0
12.01.2020 12:00:00 10,0 8,9 45 24 68 37 SW 1020,3 - 0,0
12.01.2020 11:00:00 9,4 8,8 42 23 66 36 SW 1020,2 - 0,2
12.01.2020 10:00:00 8,8 8,2 44 24 67 36 SW 1019,3 9 0,0
12.01.2020 09:00:00 7,9 7,6 32 17 58 31 SSW 1019,5 - 1,0
12.01.2020 08:00:00 7,7 7,3 29 15 59 32 SSW 1020,0 - 0,6
12.01.2020 07:00:00 7,9 5,7 31 17 64 34 SSW 1020,1 9 0,0
12.01.2020 06:00:00 7,7 5,3 30 16 61 33 S 1020,4 - 0,0
12.01.2020 05:00:00 7,8 5,1 29 16 56 31 S 1021,5 - 0,0
12.01.2020 04:00:00 7,7 5,0 32 18 58 32 SSW 1021,8 - 0,0
12.01.2020 03:00:00 8,0 4,9 29 16 58 32 S 1022,5 - 0,0
12.01.2020 02:00:00 8,0 4,8 28 15 55 30 S 1023,1 - 0,0

tt = Température de l'air
td = dewpoint
ff = Vitesse du vent
fx = gusts
dd = Direction du vent
ppp = reduced air pressure
vv = visibility
rr = Quantités de précipitations

stations d'obs. à proximité